Location: Borojevi?i
(45.0486°N, 16.2297°E)
Time: 17:41:21
(UTC+00:00)

FALCON 9 DEB - Pass Details

Date: 08 August 2020
Orbit: 427 x 441 km, 53.0° (Epoch: 25 September)

Event Time Altitude Azimuth Distance (km) Brightness Sun altitude
Rises 19:30:44 0° 215° (SW) 2,416 6.9 -12.8°
Reaches altitude 10° 19:32:55 10° 207° (SSW) 1,552 5.8 -13.1°
Maximum altitude 19:36:10 37° 138° (SE) 704 3.6 -13.5°
Drops below altitude 10° 19:39:26 10° 70° (ENE) 1,562 5.6 -14.0°
Enters shadow 19:40:22 - 66° (ENE) 1,921 6.1 -14.1°
